Regional Weather Roundup
Issued by NWS

Home | Current Version | Previous Version | Graphics & Text | Print | Product List | Glossary Off
Versions: 1 2 3 4 5 6 7 8 9 10 11 12 13 14 15 16 17 18 19 20 21 22 23 24 25 26 27 28 29 30 31 32 33 34 35 36 37 38 39 40 41 42 43 44 45 46 47 48 49

000
ASUS43 KDMX 271907
RWRIA

WEATHER ROUNDUP FOR IOWA
NATIONAL WEATHER SERVICE DES MOINES IA
100 PM CST THU NOV 27 2014

NOTE: "FAIR" INDICATES FEW OR NO CLOUDS BELOW 12,000 FEET WITH NO
SIGNIFICANT WEATHER AND/OR OBSTRUCTIONS TO VISIBILITY.

* - THESE STATIONS ARE NOT NWS STATIONS...THUS NOT UNDER NWS
QUALITY CONTROL.  THEY ALSO DO NOT REPORT WEATHER SUCH
AS PRECIPITATION OR FOG.

IAZ001>003-012>014-020>022-031>034-043>046-272000-
   NORTHWEST IOWA

CITY           SKY/WX    TMP DP  RH WIND       PRES   REMARKS
CARROLL *      CLOUDY     7  -4  61 CALM      30.47F
CHEROKEE *     CLOUDY     7  -2  66 S5        30.44F WCI  -2
DENISON *      CLOUDY    14  -2  48 CALM      30.42F
LE MARS *      CLOUDY     9   0  66 SE6       30.44F WCI  -1
ORANGE CITY *  CLOUDY     9  -2  61 SE5       30.41F WCI   0
SHELDON *      PTSUNNY    7  -4  61 S8        30.41F WCI  -6
SIOUX CITY     CLOUDY    14  -1  51 SE10      30.45F WCI   1
SPENCER        SUNNY      3  -4  72 S3        30.43F
STORM LAKE *   CLOUDY     7  -4  61 CALM      30.42F
$$

IAZ055>058-069>071-079>083-090>094-272000-
   SOUTHWEST IOWA

CITY           SKY/WX    TMP DP  RH WIND       PRES   REMARKS
ATLANTIC *     CLOUDY    12   0  57 CALM      30.46F
AUDUBON *      MOSUNNY   10  -2  56 CALM      30.45F
CLARINDA *     CLOUDY    19   9  63 VRB5      30.50F WCI  13
COUNCIL BLFS * CLOUDY    18   1  49 SE6       30.44F WCI   9
CRESTON *      CLOUDY    14   3  62 CALM      30.47F
HARLAN  *      CLOUDY    12   0  57 SE6       30.49F WCI   3
LAMONI         CLOUDY    20  10  65 N6        30.47F WCI  12
RED OAK *      CLOUDY    18   3  53 NE5       30.48F WCI  11
SHENANDOAH *   CLOUDY    21   9  58 NE5       30.49F WCI  15
$$

IAZ047>049-059>061-072>074-084-272000-
   CENTRAL IOWA

CITY           SKY/WX    TMP DP  RH WIND       PRES   REMARKS
AMES           SUNNY      6  -4  63 NW6       30.51F WCI  -4
ANKENY *       SUNNY      7  -2  66 W8        30.52F WCI  -6
CHARITON *     SUNNY     16   3  57 NW9       30.49F WCI   4
DES MOINES     CLOUDY    10  -2  58 NW8       30.51F WCI  -2
GRINNELL*      SUNNY      9   1  72 NW9       30.48F WCI  -5
KNOXVILLE *    SUNNY     12  -2  52 NW9       30.49F WCI   0
MARSHALLTOWN   SUNNY      6  -1  73 W9        30.48F WCI  -8
PELLA *        SUNNY     12   1  62 NW9       30.51F WCI   0
PERRY *          N/A      7   0  72 N6        30.49F WCI  -3
$$

IAZ004>006-015-016-023>025-035-036-272000-
   NORTH CENTRAL IOWA

CITY           SKY/WX    TMP DP  RH WIND       PRES   REMARKS
ALGONA *       SUNNY      0  -8  71 CALM      30.47F
CLARION *      SUNNY     -2  -8  78 NW7       30.48F WCI -16
ESTHERVILLE    SUNNY      0  -5  79 CALM      30.44F
FORT DODGE *   SUNNY      3  -6  66 W5        30.49F WCI  -6
MASON CITY     SUNNY      3  -4  72 NW6       30.47S WCI  -8
FOREST CITY *  SUNNY      1  -4  78 W7        30.46S WCI -11
IOWA FALLS *     N/A      7  -2  66 NW6       30.47F WCI  -3
$$

IAZ007>011-017>019-026>030-037>042-050>054-066-272000-
   NORTHEAST IOWA

CITY           SKY/WX    TMP DP  RH WIND       PRES   REMARKS
CEDAR RAPIDS   SUNNY     15   5  64 NW16      30.44F WCI  -1
CHARLES CITY * SUNNY      5  -4  66 NW8       30.44F WCI  -8
CLINTON *      MOSUNNY   21  12  68 NW13      30.43S WCI   9
DECORAH *      SUNNY      9  -4  56 N10       30.41F WCI  -6
DUBUQUE        SUNNY     18   8  65 N12       30.38F WCI   5
MONTICELLO *   SUNNY     18   5  57 NW13      30.42S WCI   4
OELWEIN *      SUNNY      9   0  66 NW9       30.44F WCI  -5
WATERLOO       SUNNY      8  -2  63 NW8       30.47F WCI  -4
$$

IAZ064-065-067-068-078-272000-
   EAST CENTRAL IOWA

CITY           SKY/WX    TMP DP  RH WIND       PRES   REMARKS
DAVENPORT      SUNNY     19   9  65 W15       30.42S WCI   5
IOWA CITY      SUNNY     17   6  62 W14       30.48F WCI   3
MT. PLEASANT * SUNNY     16   5  62 NW8       30.48F WCI   5
MUSCATINE *    SUNNY     19   9  63 W12       30.48S WCI   7
QUAD CITIES    SUNNY     21   9  59 NW16      30.43S WCI   7
$$

IAZ062-063-075>077-085>089-095>099-272000-
   SOUTHEAST IOWA

CITY           SKY/WX    TMP DP  RH WIND       PRES   REMARKS
BURLINGTON     SUNNY     18   9  68 NW9       30.47S WCI   7
FAIRFIELD *    SUNNY     12   1  62 W13       30.49S WCI  -3
FORT MADISON * SUNNY     19  12  73 NW9       30.48S WCI   9
KEOKUK *       MOSUNNY   23  12  63 N12       30.47F WCI  12
OSKALOOSA *      N/A     10   3  72 NW9       30.50F WCI  -2
CENTERVILLE *  SUNNY     19  10  68 W9        30.49F WCI   9
OTTUMWA        SUNNY     14  -1  51 NW10      30.49F WCI   1
WASHINGTON *   SUNNY     10   5  79 W13       30.48S WCI  -5
$$

ABBREVIATIONS USED IN REMARKS
   TC - TEMPERATURES IN CELSIUS
  WCI - WIND CHILL INDEX
   HX - HEAT INDEX
  VSB - VISIBILITY
$$




USA.gov is the U.S. government's official web portal to all federal, state and local government web resources and services.